Temperature
13 13 13 12 12 12 12 12 12 12 12 12 12 12 12 11 11 12 12 12 12 12 12 12 12 12 12 11 11 11 11 11 11 11 11 11 11 11 11 10 10 10 10
12 12 12 12 12 12 12 12 12 12 12 11 11 11 11 11 11 11 11 11 11 11 11 11 11 11 11 11 11 11 11 11 11 11 11 11 10 10 10 10 10 10 10
12 12 12 12 12 12 12 11 11 11 11 11 11 11 11 11 11 11 11 11 11 11 11 11 11 11 11 11 11 11 11 11 11 10 10 10 10 10 10 10 10 10 10
12 12 12 12 12 11 11 11 11 11 11 11 11 10 10 10 10 10 10 11 11 11 11 11 11 11 11 11 10 10 10 10 10 10 10 10 10 10 10 10 9 9 9
11 11 11 11 11 11 11 11 11 11 11 11 10 10 10 10 10 10 10 10 10 10 10 10 10 10 10 10 10 10 10 10 10 10 9 9 9 9 9 9 9 9 9
11 11 11 11 11 11 11 11 10 10 10 10 10 10 10 10 10 10 10 10 10 10 10 10 10 10 10 10 10 10 10 10 9 9 9 9 9 9 9 9 8 8 8
10 10 10 10 10 10 11 10 10 10 10 10 10 9 9 9 9 9 9 9 9 9 9 9 9 9 9 9 9 9 9 9 9 9 9 9 8 8 8 8 8 8 8
10 10 10 10 10 10 10 10 10 10 10 9 9 9 8 8 9 9 9 9 9 9 9 9 9 9 9 9 9 9 9 9 9 8 8 8 8 8 8 8 8 8 7
9 10 10 10 10 10 10 10 10 10 9 9 9 9 9 8 8 8 8 8 8 8 8 8 8 8 8 9 9 9 9 8 8 8 8 8 8 7 7 7 7 7 7
9 9 9 9 9 10 10 10 10 10 10 9 9 9 9 9 9 8 8 8 8 8 8 8 8 8 8 8 8 8 8 8 8 8 8 7 7 7 7 7 7 7 7
8 9 9 9 9 9 9 9 9 9 9 9 9 9 9 9 9 9 8 8 8 8 8 7 7 8 8 8 8 8 8 8 8 8 7 7 7 7 7 7 7 6 6
8 8 8 9 9 9 9 9 9 9 9 9 9 9 9 9 9 9 8 8 7 7 7 7 7 7 7 7 7 7 7 7 7 7 7 7 7 7 7 6 6 6 6
7 8 8 8 8 8 8 9 9 9 9 9 9 9 8 9 9 9 8 8 7 7 7 7 7 7 7 7 7 7 7 7 7 7 7 7 7 7 6 6 6 6 6
7 7 7 8 8 8 8 8 8 8 8 8 8 8 8 8 8 8 8 8 7 6 6 7 7 7 7 7 7 7 7 7 6 6 6 6 6 6 6 6 6 6 5
6 6 7 7 7 7 7 7 8 8 8 8 8 8 8 8 8 8 8 8 7 7 6 6 6 7 6 6 6 6 6 6 6 6 6 6 6 6 6 5 5 5 5
6 6 6 6 6 7 7 7 7 7 7 7 7 7 7 7 7 7 7 7 7 7 7 6 6 6 6 6 6 6 6 6 6 6 5 5 5 5 5 5 5 5 5
5 5 5 6 6 6 6 6 6 7 7 7 7 7 7 7 7 7 7 7 7 6 6 6 6 6 6 6 6 5 5 5 5 5 5 5 5 5 5 4 4 4 4
4 5 5 5 5 5 6 6 6 6 6 6 6 6 6 6 6 6 6 6 6 6 6 6 6 6 5 5 5 5 5 5 5 5 5 4 4 4 4 4 4 4 4
4 4 4 5 5 5 5 5 5 6 6 6 6 6 6 6 6 6 6 6 6 5 5 5 5 5 5 5 5 5 4 4 4 4 4 4 4 4 4 3 3 3 3
3 3 4 4 4 5 5 5 5 5 5 5 5 5 5 6 6 6 5 5 5 5 5 5 5 5 5 5 4 4 4 4 4 4 4 4 3 3 3 3 3 3 3
3 3 3 3 4 4 4 4 4 4 5 5 5 5 5 5 5 5 5 5 5 5 5 4 4 4 4 4 4 4 4 4 4 3 3 3 3 3 3 3 3 2 2
2 2 3 3 3 3 4 4 4 4 4 4 4 4 4 4 4 4 4 4 4 4 4 4 4 4 4 4 4 3 3 3 3 3 3 3 3 3 2 2 2 2 2
1 2 2 2 3 3 3 3 3 3 3 4 4 4 4 4 4 4 4 4 4 4 3 3 3 4 4 3 3 3 3 3 3 3 2 2 2 2 2 2 2 2 1
1 1 2 2 2 2 3 3 3 3 3 3 3 3 3 3 3 3 3 3 3 3 3 3 3 3 3 3 3 3 2 2 2 2 2 2 2 2 2 2 2 1 1
0 1 1 1 2 2 2 2 2 2 2 3 3 3 3 3 3 3 3 3 3 2 2 2 2 2 2 2 2 2 2 1 1 1 1 1 1 1 1 1 1 1 1
-0 0 1 1 1 1 2 2 2 2 2 2 2 2 2 2 2 2 2 2 2 2 2 2 2 2 1 1 1 1 1 1 1 1 1 0 0 0 0 1 0 0 0
Wind_Speed
4 5 5 6 7 7 8 7 8 8 8 8 8 8 7 7 7 7 7 9 9 9 9 9 10 10 10 10 10 10 10 10 10 10 9 9 9 10 10 10 10 10 10
5 5 5 5 6 7 8 8 8 7 6 7 7 7 7 7 7 8 7 8 10 9 9 9 10 10 10 11 11 11 11 10 9 9 8 8 9 9 9 9 9 9 9
7 5 5 5 6 8 9 8 8 7 6 6 6 6 7 7 7 8 8 8 8 9 9 8 9 9 9 10 11 10 10 10 10 9 8 8 8 9 8 9 9 9 10
8 6 4 4 7 8 8 6 5 5 5 5 5 4 5 6 7 7 8 8 8 8 8 9 9 9 9 9 10 10 10 10 10 10 9 9 9 9 9 9 10 10 10
7 6 4 4 7 7 5 6 4 5 6 6 5 5 5 5 5 7 7 8 8 8 8 9 9 9 9 9 9 9 9 9 9 9 10 10 10 9 8 9 9 9 9
6 6 4 5 7 5 4 5 6 5 5 6 6 6 5 4 5 5 5 6 7 8 8 8 8 8 9 9 8 8 8 8 8 8 8 8 8 8 7 7 7 7 7
5 5 4 4 5 5 6 7 6 7 5 5 4 4 4 4 4 4 5 5 6 7 8 8 7 7 7 7 7 7 7 7 7 7 7 7 7 7 7 7 7 7 7
4 5 4 4 4 5 6 7 7 5 3 3 4 4 2 2 3 3 3 3 4 6 6 7 7 7 7 6 6 6 6 6 6 6 6 6 7 7 7 6 6 6 6
4 4 4 4 4 5 7 7 7 6 5 2 2 4 4 3 1 1 2 3 3 3 4 5 5 6 6 6 5 6 6 6 6 6 6 6 6 6 6 6 6 6 6
4 4 4 4 4 4 6 7 5 4 7 6 2 1 2 4 4 2 1 1 2 2 2 3 3 4 4 4 4 5 5 5 5 6 6 6 6 6 6 5 6 6 5
3 4 4 4 3 4 6 6 6 5 5 5 4 2 3 3 3 3 3 1 1 1 1 2 2 3 3 3 3 3 4 3 3 4 5 5 5 6 6 5 6 5 5
2 2 3 4 3 3 5 6 7 7 5 5 4 3 3 3 3 3 3 2 1 0 1 1 1 1 1 2 2 2 2 2 2 3 4 4 4 5 5 5 5 5 5
2 3 2 3 3 3 5 6 6 7 6 7 6 4 3 3 3 3 3 2 1 0 0 0 0 1 1 1 1 1 2 2 1 1 2 3 4 4 4 5 5 5 5
3 3 3 3 3 4 5 5 5 5 5 6 6 5 4 3 3 4 4 4 2 0 1 2 1 2 1 1 1 1 1 1 1 1 1 2 3 3 4 4 5 5 5
2 3 3 3 3 4 4 4 5 5 5 5 5 5 4 3 3 3 3 4 5 3 3 3 2 2 2 2 1 1 1 1 1 0 1 2 2 3 3 3 4 4 4
1 3 4 3 3 3 5 4 4 5 6 5 4 5 4 3 3 3 3 3 3 3 3 3 2 1 2 2 1 1 1 1 2 2 2 2 2 2 2 2 3 4 4
2 4 5 4 4 4 4 5 5 5 6 5 5 6 5 4 4 3 3 3 2 2 2 1 1 0 1 1 0 1 1 1 2 3 3 3 3 2 2 2 3 3 4
2 3 4 5 5 5 5 5 6 6 7 7 7 6 5 5 5 4 4 3 3 2 3 2 1 1 1 2 1 1 1 2 2 3 3 3 3 3 3 3 3 4 4
2 2 4 5 5 6 6 5 6 6 7 7 7 7 7 7 6 4 4 4 3 2 2 3 2 1 1 1 1 1 1 1 3 3 4 4 4 4 4 4 4 5 5
3 3 4 5 5 6 6 6 6 6 6 6 7 7 7 8 7 7 5 5 4 3 3 3 2 2 1 1 1 1 1 1 2 2 3 4 4 4 4 5 5 5 6
4 4 4 4 4 4 5 7 7 7 7 6 5 6 6 7 8 7 5 6 6 4 4 3 2 2 2 2 3 2 2 1 2 1 1 2 3 3 4 4 5 6 6
4 4 4 4 4 4 5 7 7 7 7 6 5 4 5 6 7 7 7 8 8 6 5 4 3 4 4 4 2 2 1 1 2 2 1 2 2 2 4 5 6 6 7
4 4 4 5 5 5 6 7 7 7 7 6 6 5 4 4 6 5 6 6 6 7 7 6 5 6 5 5 5 3 3 3 3 2 1 3 2 3 5 6 7 7 7
4 4 5 5 5 5 7 8 8 6 6 6 6 6 6 5 5 6 5 4 3 3 5 4 5 5 5 5 6 5 4 2 1 1 2 2 2 3 4 5 7 7 7
4 4 5 5 5 5 7 8 8 5 5 5 5 5 6 5 6 7 6 5 3 2 2 4 4 4 5 6 6 3 3 2 2 2 2 2 2 3 3 3 4 5 6
4 4 4 5 6 5 7 9 9 5 5 4 4 4 6 6 7 7 5 6 5 3 3 2 2 1 2 3 6 5 5 4 2 3 2 2 2 1 2 2 2 4 5
Wind_Direction
134 131 128 129 130 130 125 121 117 113 109 105 106 105 99 96 96 91 85 79 85 94 101 105 103 101 103 102 99 94 89 83 81 81 82 79 76 71 69 68 64 59 56
139 136 142 137 134 136 133 130 125 118 111 109 101 98 95 94 92 92 88 82 76 83 90 98 100 98 97 97 96 92 86 82 79 77 79 80 78 74 70 67 61 58 56
148 141 152 151 144 141 133 126 118 113 112 107 99 92 89 85 85 86 86 82 76 73 77 90 94 97 96 98 95 90 86 81 77 74 77 77 79 75 71 68 64 61 59
154 147 149 157 149 143 136 132 129 120 113 107 99 86 79 79 76 79 82 82 77 73 71 79 88 91 91 94 93 91 89 83 78 73 72 71 76 78 74 71 67 63 60
153 152 146 154 150 142 141 142 133 128 123 113 100 80 68 68 70 76 74 75 76 76 76 76 80 84 85 85 87 88 85 81 76 72 70 68 68 72 75 71 67 62 59
145 146 142 147 149 148 147 145 135 121 125 121 103 81 63 59 65 67 70 71 72 74 77 77 78 76 77 82 78 84 83 81 76 72 68 67 66 66 71 69 62 60 59
150 138 148 149 156 160 159 149 136 130 124 128 109 90 57 52 57 52 59 66 65 70 74 75 79 79 74 72 74 80 82 83 77 72 66 62 63 63 63 62 62 58 52
160 150 146 163 167 161 157 155 146 141 138 145 136 130 116 57 38 38 43 57 60 69 70 72 79 79 79 74 69 81 83 81 76 71 66 62 59 57 54 54 49 51 46
159 153 157 157 167 168 169 169 162 153 158 156 135 145 153 180 148 35 41 49 56 62 68 73 76 82 79 75 70 79 79 77 75 69 62 56 53 51 50 51 45 43 40
165 158 161 160 165 171 170 173 169 161 160 165 148 80 113 139 148 145 40 42 51 60 57 68 77 76 75 74 72 77 79 80 75 68 61 55 50 47 43 42 36 32 29
171 165 165 161 169 180 176 170 168 165 165 165 162 144 104 84 102 143 170 181 35 24 43 62 85 79 76 81 80 83 84 81 71 62 56 48 43 39 35 33 26 20 20
200 172 169 169 179 183 180 177 173 171 169 160 154 155 153 147 154 142 160 178 185 300 11 42 72 81 76 86 90 90 88 82 63 50 44 37 31 28 24 17 13 13 13
219 202 192 186 188 188 180 176 172 176 176 171 168 169 161 151 146 140 139 150 154 259 276 283 264 166 120 97 116 133 120 104 78 46 32 26 23 18 14 9 5 2 1
222 202 189 190 188 178 174 172 174 175 174 176 171 166 164 158 152 151 152 149 143 204 247 248 265 212 201 181 196 171 141 143 109 36 27 19 15 13 4 360 355 351 350
232 204 189 188 187 175 168 168 179 178 175 179 177 170 167 165 160 153 151 157 157 178 220 227 228 231 213 193 201 146 149 178 173 349 348 341 341 348 353 353 351 347 345
202 203 194 189 182 179 171 172 178 175 173 179 177 172 169 160 156 148 154 156 154 164 197 214 220 236 198 182 213 158 179 201 235 258 282 299 304 314 321 327 341 342 338
199 203 199 190 189 188 183 178 180 175 175 175 175 174 174 163 162 160 152 150 147 144 175 224 234 241 172 175 227 192 202 211 246 253 256 271 275 278 290 303 319 324 327
214 214 196 195 199 194 188 187 185 181 178 181 182 177 178 172 166 164 162 162 163 155 164 195 222 207 216 201 201 198 234 239 248 249 254 273 264 265 278 285 292 299 308
223 218 196 198 204 199 194 193 190 183 181 186 185 183 182 175 176 173 171 171 169 158 158 171 195 217 229 189 179 275 269 266 266 257 258 265 263 270 275 279 283 288 295
226 222 217 206 208 203 197 193 189 186 184 186 189 187 185 183 183 179 178 177 168 163 152 159 179 192 202 189 172 213 271 276 279 270 268 265 265 267 275 280 281 285 290
233 228 216 209 206 201 199 193 190 186 182 183 185 189 187 182 181 179 179 178 172 172 167 170 182 191 196 192 210 214 240 287 280 253 283 273 265 267 277 280 280 286 289
235 225 213 205 209 211 202 193 187 183 178 180 181 186 184 177 177 178 180 180 178 179 183 186 202 208 218 214 208 205 203 241 269 240 226 271 246 257 267 272 281 286 287
237 226 215 208 212 209 198 192 185 180 178 181 179 180 182 182 171 175 182 183 190 193 191 192 201 211 210 205 193 202 212 219 236 231 200 261 257 266 268 273 282 283 285
234 231 221 211 212 213 196 190 183 176 177 181 184 182 182 184 180 172 172 177 189 200 209 206 205 211 210 199 193 198 204 211 264 257 198 245 268 272 291 285 277 277 285
242 236 224 215 209 211 196 187 177 177 177 181 184 178 180 183 180 170 167 172 179 201 212 206 204 201 204 201 182 154 162 180 250 259 216 214 254 285 290 285 288 288 292
245 234 230 216 208 208 198 187 177 179 177 179 176 180 182 182 179 174 175 176 187 198 177 151 134 152 168 182 186 185 187 198 220 242 213 197 236 281 295 281 288 303 306
Height
1534 1536 1539 1541 1543 1545 1547 1549 1550 1552 1554 1556 1557 1559 1560 1562 1563 1565 1566 1567 1568 1569 1569 1570 1570 1571 1572 1572 1572 1572 1572 1572 1572 1572 1572 1572 1572 1571 1571 1571 1570 1570 1569
1533 1535 1537 1539 1541 1544 1546 1548 1550 1552 1554 1555 1557 1559 1560 1562 1563 1564 1565 1566 1567 1568 1569 1570 1570 1571 1571 1572 1572 1572 1572 1572 1572 1572 1572 1571 1571 1571 1571 1571 1570 1570 1569
1531 1533 1535 1537 1540 1542 1545 1547 1549 1551 1553 1555 1556 1558 1560 1561 1563 1564 1565 1566 1567 1568 1569 1570 1570 1571 1571 1572 1572 1572 1572 1572 1572 1572 1572 1571 1571 1571 1571 1571 1570 1570 1569
1529 1531 1533 1536 1538 1541 1543 1545 1547 1549 1551 1553 1555 1557 1559 1561 1562 1563 1565 1565 1567 1567 1568 1569 1570 1570 1571 1571 1572 1572 1572 1572 1572 1572 1572 1571 1571 1571 1571 1570 1570 1569 1569
1527 1529 1531 1534 1536 1539 1541 1543 1546 1548 1550 1552 1554 1556 1558 1560 1561 1563 1564 1565 1566 1567 1567 1568 1569 1570 1570 1571 1571 1572 1572 1572 1572 1572 1571 1571 1571 1570 1570 1570 1569 1569 1569
1524 1527 1529 1531 1534 1536 1539 1541 1544 1546 1548 1551 1553 1555 1557 1559 1560 1561 1563 1564 1565 1566 1566 1567 1568 1569 1569 1570 1570 1571 1571 1571 1571 1571 1571 1570 1570 1570 1570 1569 1569 1568 1568
1521 1524 1526 1529 1531 1534 1536 1539 1541 1544 1546 1549 1551 1553 1556 1558 1559 1560 1561 1562 1564 1565 1565 1566 1567 1568 1568 1569 1569 1570 1570 1570 1570 1570 1570 1570 1569 1569 1569 1568 1568 1567 1567
1518 1520 1523 1526 1528 1531 1534 1536 1538 1541 1543 1546 1549 1551 1554 1557 1557 1559 1560 1561 1562 1563 1564 1565 1566 1566 1567 1568 1568 1569 1569 1569 1569 1569 1569 1569 1569 1568 1568 1567 1567 1566 1566
1515 1518 1520 1523 1525 1527 1530 1533 1535 1538 1540 1543 1546 1548 1551 1552 1554 1557 1558 1559 1560 1561 1562 1563 1564 1565 1565 1566 1567 1568 1568 1568 1568 1568 1568 1568 1567 1567 1567 1566 1566 1565 1564
1511 1514 1517 1519 1521 1524 1527 1530 1532 1535 1537 1540 1543 1545 1548 1548 1551 1553 1556 1557 1558 1559 1560 1562 1563 1564 1564 1565 1566 1566 1567 1567 1567 1567 1567 1566 1566 1566 1565 1565 1564 1564 1563
1508 1511 1514 1516 1518 1521 1523 1526 1529 1532 1534 1536 1539 1541 1544 1546 1547 1549 1551 1554 1555 1557 1558 1560 1561 1562 1562 1563 1564 1564 1565 1565 1565 1565 1565 1565 1565 1564 1564 1563 1563 1562 1561
1504 1507 1510 1512 1515 1517 1520 1523 1526 1528 1531 1534 1536 1538 1540 1542 1544 1546 1548 1550 1552 1554 1556 1557 1558 1559 1560 1561 1562 1562 1563 1563 1563 1563 1563 1563 1562 1562 1561 1561 1560 1560 1559
1498 1502 1506 1509 1511 1513 1516 1519 1522 1525 1527 1530 1532 1535 1538 1540 1542 1544 1545 1546 1549 1551 1553 1554 1555 1556 1557 1558 1559 1560 1560 1560 1561 1560 1560 1560 1560 1559 1559 1558 1558 1557 1557
1495 1498 1501 1505 1507 1509 1512 1515 1518 1520 1524 1526 1529 1532 1534 1537 1539 1541 1542 1544 1545 1547 1549 1551 1552 1553 1554 1556 1556 1557 1557 1558 1558 1558 1558 1557 1557 1556 1556 1555 1555 1554 1554
1492 1494 1497 1500 1503 1506 1508 1511 1514 1517 1520 1523 1525 1528 1531 1533 1535 1537 1539 1541 1543 1543 1545 1547 1549 1550 1551 1552 1553 1554 1554 1555 1555 1555 1555 1554 1554 1553 1553 1552 1552 1551 1551
1488 1490 1493 1496 1498 1501 1504 1507 1510 1513 1516 1519 1522 1524 1527 1529 1531 1534 1536 1538 1540 1541 1542 1543 1545 1546 1548 1549 1550 1550 1551 1551 1551 1551 1551 1551 1551 1550 1550 1549 1549 1548 1547
1484 1486 1488 1491 1494 1497 1500 1503 1506 1509 1512 1515 1518 1520 1523 1525 1528 1530 1532 1534 1536 1538 1538 1540 1542 1543 1544 1545 1546 1547 1547 1547 1548 1548 1548 1548 1547 1547 1546 1546 1545 1544 1544
1480 1482 1484 1487 1490 1493 1496 1498 1501 1504 1507 1510 1513 1516 1518 1521 1524 1526 1528 1530 1532 1534 1536 1536 1537 1539 1540 1541 1542 1543 1543 1544 1544 1544 1544 1544 1544 1543 1543 1542 1541 1541 1540
1476 1478 1480 1482 1485 1488 1491 1494 1497 1499 1502 1505 1508 1511 1514 1517 1519 1522 1524 1526 1528 1530 1532 1533 1534 1535 1536 1537 1538 1539 1539 1540 1540 1541 1540 1540 1540 1539 1539 1538 1538 1537 1536
1471 1473 1475 1478 1480 1483 1486 1489 1492 1495 1498 1500 1503 1506 1509 1512 1515 1517 1519 1522 1524 1526 1528 1529 1530 1531 1532 1533 1534 1534 1535 1536 1536 1536 1536 1536 1536 1536 1535 1535 1534 1533 1532
1468 1470 1471 1473 1476 1478 1481 1484 1487 1490 1493 1496 1499 1502 1505 1507 1510 1513 1515 1517 1520 1521 1523 1524 1526 1527 1527 1528 1529 1530 1531 1531 1532 1532 1532 1532 1532 1531 1531 1530 1530 1529 1528
1463 1465 1467 1469 1471 1474 1477 1480 1483 1485 1488 1491 1494 1497 1500 1503 1505 1508 1511 1513 1515 1517 1518 1520 1521 1522 1523 1524 1525 1526 1526 1526 1527 1528 1528 1527 1528 1527 1527 1526 1526 1525 1524
1459 1460 1462 1465 1467 1469 1472 1475 1478 1482 1484 1487 1489 1492 1495 1498 1501 1503 1505 1508 1510 1512 1514 1516 1516 1517 1519 1520 1521 1522 1522 1522 1522 1523 1523 1522 1523 1522 1522 1522 1521 1520 1519
1455 1456 1457 1460 1462 1465 1468 1471 1474 1477 1480 1482 1485 1488 1491 1493 1496 1498 1500 1502 1505 1507 1509 1511 1512 1513 1515 1516 1517 1518 1518 1518 1518 1518 1519 1518 1517 1517 1517 1517 1516 1515 1515
1450 1452 1453 1455 1458 1460 1463 1466 1470 1472 1475 1478 1481 1484 1486 1488 1491 1493 1496 1497 1499 1501 1504 1506 1507 1509 1510 1511 1512 1513 1513 1513 1513 1513 1514 1513 1512 1512 1511 1511 1511 1510 1509
1446 1448 1450 1451 1454 1456 1459 1462 1465 1468 1470 1473 1476 1479 1482 1484 1487 1488 1490 1492 1494 1496 1499 1500 1502 1503 1505 1506 1507 1508 1508 1509 1508 1508 1508 1509 1508 1507 1506 1505 1505 1505 1504